User: anonymous   Login
Location: Unspecified
(0.0000°N, 0.0000°E)
Time: 23:11:39
(UTC+02:00)
Language:

Cosmos 540 Rocket - Orbit

View from above orbital plane
View from above orbital plane
View from above satellite
View from above satellite

Ground track
Ground track

The orbit data is extracted from the following two-line orbital elements,

1  6324U 72104B   18172.94709313 +.00000104 +00000-0 +38626-4 0  9998
2  6324 074.0758 140.7065 0009378 193.0605 167.0311 14.43418027388655
Epoch (UTC): 21 June 2018 22:43:48
Eccentricity: 0.0009378
inclination: 74.0758°
perigee height: 740 km
apogee height: 754 km
right ascension of ascending node: 140.7065°
argument of perigee: 193.0605°
revolutions per day: 14.43418027
mean anomaly at epoch: 167.0311°
orbit number at epoch: 38865

The dashed part of the orbit path shows where the satellite is in the earth's shadow,  

DLR